STARLINK-32168, 60335

Orbit data source: Space-Track

STARLINK-32168, 60335 is a payload satellite owned by SpaceX/Seattle (US) in LEO that was launched on Fri, 02 Aug 2024 UTC via an FALCON 9 launch vehicle from the Air Force Eastern Test Range (AFETR). Payload-class satellites include a variety of spacecraft equipped with specific instruments for various scientific and technological missions. These include communications satellites like Starlink; space stations such as the ISS; scientific satellites like the Hubble; Earth observation satellites from companies like Planet Labs, Umbra, and HawkEye 360; GPS; miniature CubeSats for education and research; and military/defense satellites.

Loading next visibility...
Identifier
60335, 2024-136G
Orbit
LEO
Last TLE update
9 hours ago
Origin
Manufacturer
SpaceX/Seattle
Mission
Operational Commercial Communications
Bus & Motor
STARLINK V2M, Unknown motor
Mass
730 kg wet, ~700 kg dry
Launch date (UTC)
2024-08-02 (9 months ago)
Launch vehicle
FALCON 9
Launch site
Air Force Eastern Test Range (AFETR)
Object type
Payload
Rocket body
Debris
Shape & HBR
Box + 2 Pan, 29 m
Radar Cross Section
33.884 m², Large (>1 m²)

Expand to show TLE details & history

TLE from 9 hours ago
0 STARLINK-32168
1 60335U 24136G   25128.93726991  .00000656  00000-0  34293-4 0  9999
2 60335  53.1618  51.3508 0001120  75.3733 284.7392 15.30191942 44162
Epoch: 2025-05-08T22:29Z
Definitive object data (Epoch: 2025-05-08T22:29:40.12Z)
Latitude
-0°
Longitude
-153.06697°
Altitude
475.944 km
Speed
7.629 km/s
True Right ascension
03h 25m 24s
True Declination
0° 00' 00"
Sunlit
Object was in daylight at TLE epoch
Visualization TLE readout
Latitude
9.63877°
Longitude
18.00553°
Altitude
475.417 km
Speed
7.63 km/s
Apparent Right ascension
13h 51m 14s
Apparent Declination
-56° 24' 29"
Sunlit
Object is in full shadow
Visualization observer readout
Local Sidereal Time
15:12:42
Azimuth
191.208° SSW
Elevation
-7.856°
Doppler factor
1
Orbital elements
Apogee altitude
476.263 km
Perigee altitude
474.728 km
Semi-major axis
6,853.632 km
Eccentricity
0.000112
Inclination
53.1618°
RAAN
51.3508°
Arg. of periapsis
75.3733°
True anomaly
284.72679°
Mean anomaly
284.7392°
Eccentric anomaly
284.73299°
Mean motion
3.82527 °/min
BSTAR
0.000034293
Orbital period
94.11 mins
Loading maneuver chart data...
Loading SW <> Apogee altitude chart data...
Loading historical data...
Loading historical data...
Loading historical data...
Loading historical data...
Loading historical data...
Loading historical data...
Loading historical data...

STARLINK-32168 Visibility forecast

Observer location: undefined°, undefined°

Span
Click to sort rows by Start time (UTC) header in descending order
Start Az.
Max El. time (UTC)
Max El. Az.
Max El.
End time (UTC)
End Az.
5 mins2025-05-09 20:35:46.026Z185.313° SSW2025-05-09 20:38:46.026Z119.815° SE23.988°2025-05-09 20:40:46.026Z79.521° E
4 mins2025-05-09 22:14:46.026Z280.944° WNW2025-05-09 22:15:46.026Z310.049° NW30.016°2025-05-09 22:18:46.026Z30.113° NE
4 mins2025-05-10 03:11:46.026Z352.314° N2025-05-10 03:12:46.026Z18.296° NNE25.025°2025-05-10 03:15:46.026Z85.713° E
5 mins2025-05-10 04:48:46.026Z287.842° WNW2025-05-10 04:50:46.026Z240.849° WSW31.708°2025-05-10 04:53:46.026Z161.711° S
|